Terre Haute, IN

7:58 AM EST on January 18, 2018 (GMT -0500)
Terre Haute International-Hulman

Weather History for KHUF - December, 2012

Change the Weather History Date:

Monday, December 3, 2012

  Actual Average Record
Temperature  
Mean Temperature 65 °F 36 °F  
Max Temperature 72 °F 44 °F 73 °F (1982)
Min Temperature 58 °F 28 °F 5 °F (1966)
Degree Days  
Heating Degree Days 0 29  
Month to date heating degree days 23 86  
Since 1 July heating degree days 1130 1164  
Cooling Degree Days 0 0  
Month to date cooling degree days 0 0  
Year to date cooling degree days 1592 993  
Growing Degree Days 15 (Base 50)    
Moisture  
Dew Point 57 °F    
Average Humidity 81    
Maximum Humidity 100    
Minimum Humidity 61    
Precipitation  
Precipitation 0.03 in 0.08 in 1.13 in (1967)
Month to date precipitation 0.11 0.26  
Year to date precipitation 25.25 42.37  
Sea Level Pressure  
Sea Level Pressure 30.04 in    
Wind  
Wind Speed 13 mph (South)    
Max Wind Speed 25 mph    
Max Gust Speed 33 mph    
Visibility 8 miles    
Events Rain    
T = Trace of Precipitation, MM = Missing Value Source: NWS Daily Summary

Daily Weather History Graph

Daily Weather History Graph

Search for Another Location

Airport or City:

Trip Planner

Search our weather history database for the weather conditions in past years. The results will help you decide how hot, cold, wet, or windy it might be!

Date:

Astronomy

Dec. 03, 2012 Rise Set
Actual Time 7:52 AM EST 5:25 PM EST
Civil Twilight 7:22 AM EST 5:55 PM EST
Nautical Twilight 6:49 AM EST 6:28 PM EST
Astronomical Twilight 6:17 AM EST 7:01 PM EST
Moon 10:11 PM EST (12/3) 11:16 AM EST (12/3)
Length of Visible Light 10h 32m
Length of Day
9h 32m
Waning Gibbous, 78% of the Moon is Illuminated
Dec 3
Waning Gibbous
Dec 6
Last Quarter
Dec 13
New
Dec 20
First Quarter
Dec 28
Full

Hourly Weather History & Observations

Time (EST) Temp. Dew Point Humidity Pressure Visibility Wind Dir Wind Speed Gust Speed Precip Events Conditions
12:10 AM 59.0 °F 57.2 °F 94% 30.10 in 3.0 mi SSE 4.6 mph - N/A   Overcast
12:40 AM 59.0 °F 57.2 °F 94% 30.10 in 3.0 mi SSE 4.6 mph - N/A   Overcast
12:53 AM 59.0 °F 57.9 °F 96% 30.09 in 3.0 mi SE 4.6 mph - N/A   Overcast
1:53 AM 60.1 °F 57.9 °F 93% 30.08 in 5.0 mi South 6.9 mph - 0.00 in   Overcast
2:03 AM 60.8 °F 57.2 °F 88% 30.08 in 5.0 mi South 9.2 mph - N/A   Overcast
2:20 AM 60.8 °F 57.2 °F 88% 30.08 in 6.0 mi South 8.1 mph - N/A   Overcast
2:53 AM 60.1 °F 57.9 °F 93% 30.08 in 7.0 mi South 9.2 mph - N/A   Overcast
3:12 AM 60.8 °F 57.2 °F 88% 30.09 in 8.0 mi South 6.9 mph - N/A   Overcast
3:53 AM 61.0 °F 57.9 °F 90% 30.08 in 9.0 mi South 10.4 mph - N/A   Overcast
4:53 AM 61.0 °F 57.9 °F 90% 30.06 in 9.0 mi South 9.2 mph - N/A   Overcast
5:31 AM 60.8 °F 57.2 °F 88% 30.07 in 9.0 mi South 10.4 mph - 0.00 in Rain Light Rain
5:53 AM 61.0 °F 57.9 °F 90% 30.06 in 10.0 mi South 11.5 mph - 0.00 in   Overcast
6:53 AM 62.1 °F 57.9 °F 86% 30.06 in 10.0 mi South 9.2 mph - N/A   Overcast
7:53 AM 61.0 °F 59.0 °F 93% 30.07 in 9.0 mi South 10.4 mph - 0.03 in   Overcast
8:21 AM 62.6 °F 57.2 °F 82% 30.07 in 9.0 mi SSW 11.5 mph - N/A   Mostly Cloudy
8:53 AM 62.1 °F 57.9 °F 86% 30.07 in 10.0 mi South 10.4 mph - N/A   Scattered Clouds
10:50 AM 64.4 °F 57.2 °F 77% 30.06 in 10.0 mi SSW 13.8 mph 25.3 mph N/A   Mostly Cloudy
10:53 AM 64.0 °F 57.9 °F 80% 30.06 in 10.0 mi SSW 13.8 mph 25.3 mph N/A   Mostly Cloudy
11:53 AM 64.9 °F 57.9 °F 78% 30.04 in 10.0 mi SSW 17.3 mph - N/A   Mostly Cloudy
12:53 PM 68.0 °F 59.0 °F 73% 30.01 in 10.0 mi SSW 20.7 mph 28.8 mph N/A   Mostly Cloudy
1:53 PM 70.0 °F 59.0 °F 68% 29.99 in 10.0 mi South 13.8 mph 26.5 mph N/A   Mostly Cloudy
2:53 PM 71.1 °F 57.9 °F 63% 29.97 in 10.0 mi South 16.1 mph 24.2 mph N/A   Partly Cloudy
3:53 PM 69.1 °F 57.0 °F 65% 29.97 in 10.0 mi South 18.4 mph 27.6 mph N/A   Clear
4:53 PM 69.1 °F 55.0 °F 61% 29.97 in 10.0 mi South 13.8 mph - N/A   Clear
5:53 PM 66.0 °F 55.0 °F 68% 29.97 in 10.0 mi South 13.8 mph - N/A   Clear
6:53 PM 64.9 °F 55.0 °F 70% 29.99 in 10.0 mi South 17.3 mph 25.3 mph N/A   Clear
7:53 PM 64.0 °F 55.9 °F 75% 29.99 in 10.0 mi South 21.9 mph 28.8 mph N/A   Clear
8:53 PM 64.0 °F 55.9 °F 75% 30.00 in 10.0 mi SSW 11.5 mph - N/A   Clear
9:53 PM 64.0 °F 55.9 °F 75% 30.01 in 10.0 mi SSW 15.0 mph - N/A   Overcast
10:53 PM 63.0 °F 54.0 °F 72% 30.00 in 10.0 mi South 11.5 mph - N/A   Overcast
11:53 PM 64.0 °F 52.0 °F 65% 30.01 in 10.0 mi South 13.8 mph - N/A   Mostly Cloudy